Location: Steilacoom
(47.1700°N, 122.5700°W)
Time: 02:52:46
(UTC-08:00)

UNISAT 6 - Visible Passes

Search period start: 23 January 2020 00:00
Search period end: 02 February 2020 00:00
Orbit: 606 x 690 km, 97.7° (Epoch: 22 January)

Date Brightness Start Highest point End Pass type
(mag) Time Alt. Az. Time Alt. Az. Time Alt. Az.
23 Jan ? 06:33:30 10° ESE 06:36:36 19° ENE 06:39:39 10° NNE visible
24 Jan ? 06:58:26 10° SE 07:02:20 32° ENE 07:06:10 10° N visible
26 Jan ? 06:15:55 10° E 06:17:56 13° ENE 06:19:57 10° NNE visible
27 Jan ? 06:40:16 10° ESE 06:43:36 22° ENE 06:46:54 10° NNE visible
28 Jan ? 07:05:21 10° SE 07:09:21 37° ENE 07:13:19 10° N visible
30 Jan ? 06:22:27 10° E 06:24:55 15° ENE 06:27:22 10° NNE visible
31 Jan ? 06:47:04 10° ESE 06:50:36 25° ENE 06:54:06 10° N visible
